Home   Weather   Miskolc   Past weeks

Flag for Hungary Past Weather in Miskolc, Hungary — Yesterday and Last 2 Weeks

Now
30 °F

Passing clouds.


Feels Like: 30 °F
Forecast: 20 / 36 °F
Wind: No wind

Location: Miskolc

Current Time: Dec 3, 2016 at 6:45:30 pm

Latest Report: Dec 3, 2016 at 6:00 pm


Visibility: 25 mi

Pressure: 30.29 "Hg

Humidity: 71%

Dew Point: 21 °F

Location of MiskolcLocation

Past Weather in Miskolc — Graph

°F

Miskolc Temperature Yesterday

Maximum temperature yesterday: 46 °F (at 1:00 pm)
Minimum temperature yesterday: 29 °F (at 11:00 pm)
Average temperature yesterday: 40 °F

High & Low Weather Summary for the Past Weeks

 TemperatureHumidityPressure
High57 °F (Nov 19, 6:00 pm)94% (Nov 26, 9:00 am)30.45 "Hg (Nov 26, 9:00 am)
Low24 °F (Nov 29, 7:00 am)27% (Nov 29, 12:00 pm)29.50 "Hg (Dec 2, 6:00 am)
Average40 °F74%30.13 "Hg
* Reported Nov 18 5:00 pm — Dec 3 5:00 pm, Miskolc, Weather by CustomWeather, © 2016

Note: Actual official high and low records may vary slightly from our data, if they occured in-between our weather recording intervals... More about our weather records

Advertising

Miskolc Weather History for the Previous 24 Hours

Scroll right to see more
 ConditionsComfort  
Time TempWeatherWind HumidityBarometerVisibility
5:00 pm
Sat, Dec 3
32 °FPassing clouds.1 mph65%30.26 "Hg25 mi
4:00 pm36 °FPassing clouds.1 mph57%30.24 "Hg31 mi
3:00 pm41 °FPartly sunny.2 mph44%30.21 "Hg31 mi
2:00 pm42 °FPassing clouds.2 mph42%30.20 "Hg31 mi
1:00 pm43 °FPassing clouds.2 mph45%30.19 "Hg31 mi
12:00 pm41 °FPassing clouds.5 mph46%30.18 "Hg31 mi
11:00 am41 °FSunny.3 mph46%30.17 "Hg31 mi
10:00 am38 °FSunny.2 mph58%30.16 "Hg25 mi
9:00 am28 °FSunny.No wind83%30.15 "Hg16 mi
8:00 am24 °FSunny.1 mph85%30.14 "Hg16 mi
7:00 am24 °FClear.No wind83%30.12 "Hg16 mi
6:00 am26 °FClear.1 mph81%30.11 "Hg19 mi
5:00 am25 °FClear.No wind84%30.10 "Hg19 mi
4:00 am25 °FClear.1 mph84%30.10 "Hg19 mi
2:00 am26 °FClear.1 mph84%30.09 "Hg25 mi
1:00 am27 °FClear.1 mph83%30.08 "Hg25 mi
12:00 am28 °FPassing clouds.1 mph80%30.08 "Hg25 mi
11:00 pm
Fri, Dec 2
29 °FPassing clouds.1 mph80%30.06 "Hg25 mi
10:00 pm29 °FPassing clouds.No wind77%30.05 "Hg25 mi
9:00 pm30 °FClear.1 mph75%30.02 "Hg25 mi
8:00 pm31 °FClear.No wind75%29.98 "Hg31 mi
7:00 pm33 °FClear.1 mph69%29.96 "Hg31 mi
6:00 pm36 °FClear.1 mph58%29.93 "Hg37 mi
Weather by CustomWeather, © 2016

See weather overviewHow to use our weather pages